DW5678 Kavala GR current weather conditions

sailwx.info

Wind from 226

Air temperature 18.3° C
Dewpoint 14.6° C

Last reported at 2017-Oct-19 19:08 UTC.
Time now 2017-Oct-19 20:15 UTC

Location: N 40°56' E 024°24'.
View on Google Maps.

See reports from other nearby stations

  
Tides and Currents Weather Stations Pressure Air Temp Water Temp Dewpoint Dewpoint Depression Visibility Wind Speed Wind Dir Waves Ship Positions
date/time (UTC)wind fromknots sea level pressurealtimeterstation pressurevisibilityair tempwater tempwave heightnotes
2017-Oct-19 19:08 226 18.3
2017-Oct-19 18:58 226 18.3
2017-Oct-19 18:48 226 17.8
2017-Oct-19 18:38 226 17.8
2017-Oct-19 18:28 226 18.3
2017-Oct-19 18:18 226 17.8
2017-Oct-19 18:08 226 17.8
2017-Oct-19 17:58 226 17.8
2017-Oct-19 17:48 226 18.3
2017-Oct-19 17:38 226 18.3
2017-Oct-19 17:28 226 18.3
2017-Oct-19 17:18 226 18.3
2017-Oct-19 17:08 226 18.3
2017-Oct-19 16:58 226 18.3
2017-Oct-19 16:48 226 18.3
2017-Oct-19 16:38 226 18.3
2017-Oct-19 16:28 226 18.3
2017-Oct-19 16:18 226 18.9
2017-Oct-19 16:08 226 18.9
2017-Oct-19 15:58 226 19.4
2017-Oct-19 15:48 226 19.4
2017-Oct-19 15:38 225 0 gusting 4 19.4
2017-Oct-19 15:28 225 0 gusting 1 19.4
2017-Oct-19 15:18 192 0 gusting 2 19.4
2017-Oct-19 15:08 190 0 gusting 4 20.0
2017-Oct-19 14:58 212 0 gusting 2 20.0
2017-Oct-19 14:48 197 1 gusting 4 20.0
2017-Oct-19 14:38 236 0 gusting 4 20.0
2017-Oct-19 14:28 227 1 gusting 6 20.6
2017-Oct-19 14:18 218 2 gusting 5 20.6
2017-Oct-19 14:08 210 0 gusting 5 20.6
2017-Oct-19 13:58 236 1 gusting 4 21.1
2017-Oct-19 13:48 239 1 gusting 2 21.1
2017-Oct-19 13:38 197 0 gusting 4 21.1
2017-Oct-19 13:28 173 21.1
2017-Oct-19 13:18 160 0 gusting 4 21.1
2017-Oct-19 13:08 178 21.1
2017-Oct-19 12:58 157 0 gusting 1 21.1
2017-Oct-19 12:48 168 0 gusting 2 21.1
2017-Oct-19 12:38 145 0 gusting 2 21.1
2017-Oct-19 12:28 214 0 gusting 2 21.1
2017-Oct-19 12:18 142 21.1
2017-Oct-19 12:08 151 0 gusting 4 21.1
2017-Oct-19 11:58 133 0 gusting 2 21.1
2017-Oct-19 11:48 199 20.6
2017-Oct-19 11:38 156 0 gusting 2 20.0
2017-Oct-19 11:28 150 0 gusting 2 21.1
2017-Oct-19 11:18 188 21.1
2017-Oct-19 11:08 211 0 gusting 4 21.1
2017-Oct-19 10:58 199 0 gusting 2 21.7
2017-Oct-19 10:48 110 0 gusting 1 21.1
2017-Oct-19 10:38 098 0 gusting 1 21.1
2017-Oct-19 10:28 117 0 gusting 2 21.1
2017-Oct-19 10:18 168 0 gusting 2 20.6
2017-Oct-19 10:08 203 1 gusting 5 21.1
2017-Oct-19 09:58 127 1 gusting 4 21.1
2017-Oct-19 09:48 119 0 gusting 4 20.6
2017-Oct-19 09:38 147 1 gusting 4 20.0
2017-Oct-19 09:28 155 0 gusting 2 20.0
2017-Oct-19 09:18 150 0 gusting 1 20.0
2017-Oct-19 09:08 154 0 gusting 2 20.0
2017-Oct-19 08:58 138 1 gusting 5 20.0
2017-Oct-19 08:48 140 0 gusting 2 19.4
2017-Oct-19 08:38 110 0 gusting 2 19.4
2017-Oct-19 08:28 145 0 gusting 1 19.4
2017-Oct-19 08:18 108 0 gusting 2 19.4
2017-Oct-19 08:08 155 0 gusting 1 20.0
2017-Oct-19 07:58 200 19.4
2017-Oct-19 07:48 205 0 gusting 1 18.9
2017-Oct-19 07:38 135 2 gusting 6 18.9
2017-Oct-19 07:28 071 0 gusting 1 18.9
2017-Oct-19 07:18 071 18.9
2017-Oct-19 07:08 071 18.3
2017-Oct-19 06:58 071 0 gusting 1 18.3
2017-Oct-19 06:48 070 18.3
2017-Oct-19 06:38 070 17.8
2017-Oct-19 06:28 355 0 gusting 2 18.3
2017-Oct-19 06:18 355 18.3
2017-Oct-19 06:08 355 17.8
2017-Oct-19 05:58 355 18.3
2017-Oct-19 05:48 355 17.8
2017-Oct-19 05:38 355 0 gusting 2 18.3
2017-Oct-19 05:28 355 17.8
2017-Oct-19 05:18 355 17.2
2017-Oct-19 05:08 355 17.2
2017-Oct-19 04:58 355 17.2
2017-Oct-19 04:48 355 17.2
2017-Oct-19 04:38 355 16.7
2017-Oct-19 04:28 355 16.7
2017-Oct-19 04:18 355 17.2
2017-Oct-19 04:08 355 17.8
2017-Oct-19 03:58 355 17.2
2017-Oct-19 03:48 355 17.8
2017-Oct-19 03:38 355 17.8
2017-Oct-19 03:28 355 17.8
2017-Oct-19 03:18 355 18.3
2017-Oct-19 03:08 355 18.3
2017-Oct-19 02:58 355 18.9
2017-Oct-19 02:48 355 18.9
2017-Oct-19 02:38 355 18.3
2017-Oct-19 02:28 355 18.9
2017-Oct-19 02:18 355 18.9
2017-Oct-19 02:08 355 19.4
2017-Oct-19 01:58 355 19.4
2017-Oct-19 01:48 355 18.9
2017-Oct-19 01:38 355 18.9
2017-Oct-19 01:28 355 18.9
2017-Oct-19 01:18 355 18.9
2017-Oct-19 01:08 355 18.3
2017-Oct-19 00:58 355 17.8
2017-Oct-19 00:48 355 18.3
2017-Oct-19 00:38 355 18.3
2017-Oct-19 00:28 355 18.3
2017-Oct-19 00:18 355 18.3
2017-Oct-19 00:08 355 18.3
2017-Oct-18 23:58 355 18.3
2017-Oct-18 23:48 355 18.9
2017-Oct-18 23:38 355 18.9
2017-Oct-18 23:28 355 19.4
2017-Oct-18 23:18 336 20.6
2017-Oct-18 23:08 336 21.1
2017-Oct-18 22:58 336 20.6
2017-Oct-18 22:48 336 20.6
2017-Oct-18 22:38 336 21.7
2017-Oct-18 22:28 336 21.7
2017-Oct-18 22:18 336 0 gusting 2 21.7
2017-Oct-18 22:08 334 1 gusting 2 21.7
2017-Oct-18 21:58 334 0 gusting 1 21.7
2017-Oct-18 21:48 334 21.7
2017-Oct-18 21:38 334 21.7
2017-Oct-18 21:28 334 21.1
2017-Oct-18 21:18 334 21.7
2017-Oct-18 21:08 334 21.1
2017-Oct-18 20:58 334 21.1
2017-Oct-18 20:48 334 22.2
2017-Oct-18 20:38 334 21.7
2017-Oct-18 20:28 334 21.7
2017-Oct-18 20:18 334 21.7
2017-Oct-18 20:08 334 0 gusting 1 21.7
2017-Oct-18 19:58 334 21.7
2017-Oct-18 19:48 334 22.2
2017-Oct-18 19:38 334 21.7
2017-Oct-18 19:28 334 22.2
2017-Oct-18 19:18 334 22.2
2017-Oct-18 19:08 334 0 gusting 2 21.7
2017-Oct-18 18:58 334 0 gusting 2 21.7
2017-Oct-18 18:48 334 0 gusting 2 21.7
2017-Oct-18 18:38 334 21.7
2017-Oct-18 18:28 333 21.7
2017-Oct-18 18:18 334 22.2
2017-Oct-18 18:08 334 21.7
2017-Oct-18 17:58 334 22.2
2017-Oct-18 17:48 334 22.2
2017-Oct-18 17:38 334 22.8
2017-Oct-18 17:28 334 22.8
2017-Oct-18 17:18 334 22.8
2017-Oct-18 17:08 334 22.8
2017-Oct-18 16:58 333 0 gusting 1 22.8
2017-Oct-18 16:48 333 0 gusting 1 22.8
2017-Oct-18 16:38 334 22.8
2017-Oct-18 16:28 334 22.8
2017-Oct-18 16:18 334 0 gusting 1 22.8
2017-Oct-18 16:08 334 0 gusting 2 22.8
2017-Oct-18 15:58 333 0 gusting 2 22.2
2017-Oct-18 15:48 328 0 gusting 2 22.8
2017-Oct-18 15:38 328 22.8
2017-Oct-18 15:28 328 23.3
2017-Oct-18 15:18 328 23.3
2017-Oct-18 15:08 328 0 gusting 1 23.3
2017-Oct-18 14:58 156 23.9
2017-Oct-18 14:48 156 23.9
2017-Oct-18 14:38 165 24.4
2017-Oct-18 14:28 161 24.4
2017-Oct-18 14:18 180 24.4
2017-Oct-18 14:08 187 24.4
2017-Oct-18 13:58 187 24.4
2017-Oct-18 13:48 213 0 gusting 2 24.4
2017-Oct-18 13:38 208 0 gusting 1 24.4
2017-Oct-18 13:28 173 25.0
2017-Oct-18 13:18 142 0 gusting 4 25.0
2017-Oct-18 13:08 195 0 gusting 4 25.0
2017-Oct-18 12:58 161 0 gusting 4 25.6
2017-Oct-18 12:48 214 0 gusting 4 25.0
2017-Oct-18 12:38 191 25.0
2017-Oct-18 12:28 189 24.4
2017-Oct-18 12:18 182 1 gusting 4 23.9
2017-Oct-18 12:08 194 0 gusting 5 24.4
2017-Oct-18 11:58 223 1 gusting 4 25.0
2017-Oct-18 11:48 159 0 gusting 2 24.4
2017-Oct-18 11:38 193 0 gusting 2 24.4
2017-Oct-18 11:28 179 24.4
2017-Oct-18 11:18 150 2 gusting 4 24.4
2017-Oct-18 11:08 170 1 gusting 4 24.4
2017-Oct-18 10:58 161 1 gusting 2 25.0
2017-Oct-18 10:48 181 1 gusting 5 25.0
2017-Oct-18 10:38 219 1 gusting 2 25.0
2017-Oct-18 10:28 133 1 gusting 2 25.0
2017-Oct-18 10:18 203 0 gusting 4 25.6
2017-Oct-18 10:08 076 25.0
2017-Oct-18 09:58 224 0 gusting 6 24.4
2017-Oct-18 09:48 203 2 gusting 6 23.9
2017-Oct-18 09:38 204 1 gusting 4 23.9
2017-Oct-18 09:28 224 1 gusting 6 23.9
2017-Oct-18 09:18 158 1 gusting 5 23.3
2017-Oct-18 09:08 309 2 gusting 6 23.3
2017-Oct-18 08:58 259 4 gusting 6 23.3
2017-Oct-18 08:48 257 4 gusting 6 23.3
2017-Oct-18 08:38 250 3 gusting 6 23.3
2017-Oct-18 08:28 207 0 gusting 5 23.3
2017-Oct-18 08:18 214 1 gusting 5 22.8
2017-Oct-18 08:08 275 22.8
2017-Oct-18 07:58 205 2 gusting 5 22.8
2017-Oct-18 07:48 258 2 gusting 6 22.2
2017-Oct-18 07:38 254 1 gusting 4 21.7
2017-Oct-18 07:28 245 0 gusting 2 21.7
2017-Oct-18 07:18 032 21.1
2017-Oct-18 07:08 032 20.0
2017-Oct-18 06:58 032 20.0
2017-Oct-18 06:48 032 19.4
2017-Oct-18 06:38 032 18.9
2017-Oct-18 06:28 032 18.9
2017-Oct-18 06:18 032 18.9
2017-Oct-18 06:08 032 18.3
2017-Oct-18 05:58 032 17.8
2017-Oct-18 05:48 032 17.8
2017-Oct-18 05:38 032 17.2
2017-Oct-18 05:28 032 17.2
2017-Oct-18 05:18 032 17.2
2017-Oct-18 05:08 032 16.7
2017-Oct-18 04:58 032 16.7
2017-Oct-18 04:48 032 16.7
2017-Oct-18 04:38 032 16.7
2017-Oct-18 04:28 032 16.7
2017-Oct-18 04:18 032 16.7
2017-Oct-18 04:08 032 16.7
2017-Oct-18 03:58 032 16.7
2017-Oct-18 03:48 032 16.7
2017-Oct-18 03:38 032 16.7
2017-Oct-18 03:28 032 17.2
2017-Oct-18 03:18 032 17.2
2017-Oct-18 03:08 032 17.2
2017-Oct-18 02:58 032 17.2
2017-Oct-18 02:48 032 17.2
2017-Oct-18 02:38 032 17.8
2017-Oct-18 02:28 032 17.8
2017-Oct-18 02:18 032 17.2
2017-Oct-18 02:08 032 17.8
2017-Oct-18 01:58 032 18.3
2017-Oct-18 01:48 032 18.9
2017-Oct-18 01:38 032 18.9
2017-Oct-18 01:28 032 18.9
2017-Oct-18 01:18 032 18.9
2017-Oct-18 01:08 032 18.3
2017-Oct-18 00:58 032 18.3
2017-Oct-18 00:48 032 17.8
2017-Oct-18 00:38 032 17.8
2017-Oct-18 00:28 032 17.2
2017-Oct-18 00:18 032 17.8
2017-Oct-18 00:08 032 17.8
2017-Oct-17 23:58 032 17.8
2017-Oct-17 23:48 032 18.3
2017-Oct-17 23:38 032 18.3
2017-Oct-17 23:28 032 18.3
2017-Oct-17 23:18 032 18.3
2017-Oct-17 23:08 032 18.3
2017-Oct-17 22:58 032 18.3
2017-Oct-17 22:48 032 18.3
2017-Oct-17 22:38 032 18.3
2017-Oct-17 22:28 032 17.8
2017-Oct-17 22:18 032 17.8
2017-Oct-17 22:08 032 17.8
2017-Oct-17 21:58 340 17.8
2017-Oct-17 21:48 212 17.8
2017-Oct-17 21:38 212 17.8
2017-Oct-17 21:28 212 18.3
2017-Oct-17 21:18 212 18.3
2017-Oct-17 21:08 212 18.9
2017-Oct-17 20:58 212 18.3
2017-Oct-17 20:48 212 18.3
2017-Oct-17 20:38 212 17.8
2017-Oct-17 20:28 212 17.8
2017-Oct-17 20:18 212 17.8
2017-Oct-17 20:08 212 18.3